Regional Weather Roundup
Issued by NWS

Home | Current Version | Previous Version | Graphics & Text | Print | Product List | Glossary Off
Versions: 1 2 3 4 5 6 7 8 9 10 11 12 13 14 15 16 17 18 19 20 21 22 23 24 25 26 27 28 29 30 31 32 33 34 35 36 37 38 39 40 41 42 43 44 45 46 47 48 49 50

000
ASUS43 KTOP 120208
RWRKS

WEATHER ROUNDUP FOR KANSAS
NATIONAL WEATHER SERVICE GOODLAND KS
800 PM CST MON DEC 11 2017

NOTE:  "FAIR" INDICATES FEW OR NO CLOUDS BELOW 12,000 FEET WITH NO
SIGNIFICANT WEATHER AND/OR OBSTRUCTIONS TO VISIBILITY.

KSZ001>006-013>018-027>032-041>047-120300-
NORTHWEST KANSAS

CITY           SKY/WX    TMP DP  RH WIND       PRES   REMARKS
GOODLAND       CLOUDY    39  11  31 N6        30.38R
HAYS           CLEAR     41  26  55 N15       30.36R
HILL CITY      CLEAR     38  25  59 N7        30.38R
RUSSELL        CLEAR     41  29  62 N15       30.33R
$$

KSZ061>065-074>080-084>089-120300-
SOUTHWEST KANSAS

CITY           SKY/WX    TMP DP  RH WIND       PRES   REMARKS
DODGE CITY     CLEAR     43  16  33 N13       30.32R
ELKHART        CLEAR     43  16  33 N12       30.38R
GARDEN CITY    CLEAR     36   7  29 N9        30.35R
GREAT BEND     CLOUDY    43  26  51 N14       30.33R
LIBERAL        CLEAR     38   8  29 NW10      30.36R WCI  31
PRATT          CLEAR     44  21  41 N10       30.30R
$$

KSZ066>073-081>083-090>101-120300-
SOUTHEAST KANSAS

CITY           SKY/WX    TMP DP  RH WIND       PRES   REMARKS
CHANUTE        PTCLDY    48  28  46 NW16G26   30.17R
COFFEYVILLE    CLOUDY    52  27  38 N20G26    30.18R
HUTCHINSON     PTCLDY    45  28  51 N16G29    30.27R
MEDICINE LODGE   N/A     48  24  39 N15G24    30.29R
NEWTON         CLEAR     43  28  55 N30G36    30.25R
PARSONS        CLOUDY    50  28  42 N12       30.18R
WICHITA INTL   CLOUDY    48  28  46 N23G36    30.26R
WICHITA JABRA  MOCLDY    45  28  51 N25G40    30.24R
WICHITA MCCONL MOCLDY    47  26  44 N23G35    30.24R
WINFIELD       CLOUDY    49  27  42 N21G31    30.25R
$$

KSZ007>012-019>026-033>040-048>060-102>105-120300-
NORTHEAST KANSAS

CITY           SKY/WX    TMP DP  RH WIND       PRES   REMARKS
CONCORDIA      CLOUDY    43  31  62 N21G30    30.30R
EMPORIA        CLEAR     45  29  53 NW28G36   30.20R
LAWRENCE       CLOUDY    45  34  65 NW21G33   30.18R
MANHATTAN      CLOUDY    45  32  60 N10G18    30.27R
MARYSVILLE     PTCLDY    41  32  70 N18G26    30.25R
OLATHE IND     CLOUDY    42  33  70 NW24G35   30.16R
OLATHE EXE     MOCLDY    42  33  70 N17G33    30.14R
SALINA         CLEAR     44  29  55 NW20      30.30R
TOPEKA BILLARD MOCLDY    44  34  67 NW18G29   30.20R
TOPEKA FORBES  PTCLDY    45  34  65 NW24G31   30.20R
$$




USA.gov is the U.S. government's official web portal to all federal, state and local government web resources and services.